This demonstration page uses our WeatherBlox Daily Observations layout. Learn more.

Left ArrowRight Arrow

39.08367, -84.50855

Hourly Observations for September 24, 2015

Temp ( °F °C ) Dew Point ( °F °C ) Humidity (%) Winds ( mph kmh ) Pressure ( in mb ) Visibility ( mi km ) Precip ( " mm )
12:53 am 00:53 Clear 55 12.8 55 12.8 100 100 ENE 3 6 30.19 1022 9 14 0.00 0.00
1:53 am 01:53 Clear 54 12.2 54 12.2 100 100 ENE 3 6 30.19 1023 8 13 0.00 0.00
2:53 am 02:53 Clear with Mist and Fog 54 12.2 54 12.2 100 100 Calm 30.20 1023 6 10 0.00 0.00
3:14 am 03:14 Clear with Mist and Fog 54 12 54 12 100 100 Calm 30.21 1023 2 3 0.00 0.00
3:35 am 03:35 Clear with Mist and Fog 53 11.7 53 11.7 100 100 Calm 30.21 1023 3 4 0.00 0.00
3:44 am 03:44 Clear with Mist and Fog 54 12 54 12 100 100 Calm 30.21 1023 5 8 0.00 0.00
3:53 am 03:53 Clear 54 12.2 54 12.2 100 100 Calm 30.19 1023 7 11 0.00 0.00
4:53 am 04:53 Clear 54 12.2 54 12.2 100 100 Calm 30.19 1022 8 13 0.00 0.00
5:24 am 05:24 Clear with Mist and Fog 52 11 52 11 100 100 Calm 30.21 1023 2 2 0.00 0.00
5:30 am 05:30 Clear with Fog 52 11 52 11 100 100 Calm 30.21 1023 0 0 0.00 0.00
5:38 am 05:38 Clear with Mist and Fog 50 10 50 10 100 100 Calm 30.21 1023 1 2 0.00 0.00
5:46 am 05:46 Clear 51 10.6 51 10.6 100 100 Calm 30.21 1023 7 11 0.00 0.00
5:51 am 05:51 Clear with Mist and Fog 52 11 52 11 100 100 Calm 30.21 1023 1 1 0.00 0.00
5:53 am 05:53 Clear with Mist and Fog 52 11.1 52 11.1 100 100 Calm 30.21 1023 1 1 0.00 0.00
6:00 am 06:00 Clear with Mist and Fog 53 11.7 52 11.1 96 96 Calm 30.21 1023 2 3 0.00 0.00
6:07 am 06:07 Clear 52 11.1 52 11.1 100 100 Calm 30.21 1023 7 11 0.00 0.00
6:33 am 06:33 Clear with Mist and Fog 54 12 54 12 100 100 Calm 30.21 1023 3 4 0.00 0.00
6:53 am 06:53 Clear with Mist and Fog 52 11 52 11 100 100 Calm 30.21 1023 2 2 0.00 0.00
7:00 am 07:00 Clear 52 11.1 52 11.1 100 100 Calm 30.24 1024 10 16 0.00 0.00
7:53 am 07:53 Sunny 52 11.1 52 11.1 100 100 Calm 30.24 1024 10 16 0.00 0.00
8:53 am 08:53 Sunny 59 15 57 13.9 93 93 Calm 30.24 1024 10 16 0.00 0.00
9:53 am 09:53 Sunny 64 17.8 57 13.9 78 78 NNE 8 13 30.24 1024 10 16 0.00 0.00
10:53 am 10:53 Sunny 69 20.6 57 13.9 66 66 NNE 7 11 30.24 1024 10 16 0.00 0.00
11:53 am 11:53 Sunny 74 23.3 55 12.8 52 52 ENE 6 9 30.23 1024 10 16 0.00 0.00
12:53 pm 12:53 Sunny 77 25 56 13.3 48 48 Calm 30.22 1023 10 16 0.00 0.00
1:53 pm 13:53 Sunny 79 26.1 54 12.2 42 42 Calm 30.21 1023 10 16 0.00 0.00
2:53 pm 14:53 Sunny 81 27.2 54 12.2 39 39 VRB 6 9 30.18 1022 10 16 0.00 0.00
3:53 pm 15:53 Sunny 82 27.8 53 11.7 37 37 NW 3 6 30.16 1022 10 16 0.00 0.00
4:53 pm 16:53 Sunny 82 27.8 52 11.1 35 35 N 5 7 30.15 1021 10 16 0.00 0.00
5:53 pm 17:53 Sunny 82 27.8 51 10.6 34 34 undefined N/A 30.14 1021 10 16 0.00 0.00
6:53 pm 18:53 Sunny 74 23.3 61 16.1 64 64 undefined N/A 30.15 1021 10 16 0.00 0.00
7:53 pm 19:53 Clear 67 19.4 59 15 76 76 undefined N/A 30.15 1021 10 16 0.00 0.00
8:53 pm 20:53 Clear 63 17.2 58 14.4 84 84 undefined N/A 30.16 1021 10 16 0.00 0.00
9:53 pm 21:53 Clear 61 16.1 58 14.4 90 90 undefined N/A 30.17 1022 10 16 0.00 0.00
10:53 pm 22:53 Clear 60 15.6 58 14.4 93 93 undefined N/A 30.17 1022 10 16 0.00 0.00
11:53 pm 23:53 Clear 59 15 58 14.4 96 96 undefined N/A 30.17 1022 10 16 0.00 0.00

Powered by AerisWeather